This is the latest recevied weather packets stored in our database for station/object KD0JCP-10. If no packets are shown the sender has not sent any weather packets the latest 10 day(s).
| Time | Temp. | Humidity | Pressure | Rain* | Wind** | Luminosity | Snow |
|---|---|---|---|---|---|---|---|
| 1778010073 | 10.56° C | 57% | 1015 hPa | 0 mm | - | - | - |
| 1778009773 | 10.56° C | 56% | 1015.1 hPa | 0 mm | - | - | - |
| 1778009473 | 10.56° C | 57% | 1015.2 hPa | 0 mm | - | - | - |
| 1778009173 | 10° C | 60% | 1015.1 hPa | 0 mm | - | - | - |
| 1778008873 | 10° C | 59% | 1015 hPa | 0 mm | - | - | - |
| 1778008573 | 10° C | 61% | 1015.1 hPa | 0 mm | - | - | - |
| 1778008273 | 10° C | 60% | 1015.1 hPa | 0 mm | - | - | - |
| 1778007973 | 10° C | 59% | 1015.2 hPa | 0 mm | - | - | - |
| 1778007673 | 10° C | 58% | 1015.3 hPa | 0 mm | - | - | - |
| 1778007373 | 10° C | 58% | 1015.2 hPa | 0 mm | - | - | - |
| 1778007073 | 10.56° C | 56% | 1015.1 hPa | 0 mm | - | - | - |
| 1778006773 | 10.56° C | 58% | 1015.1 hPa | 0 mm | - | - | - |
| 1778006473 | 10.56° C | 58% | 1015.1 hPa | 0 mm | - | - | - |
| 1778006173 | 10.56° C | 56% | 1015.2 hPa | 0 mm | - | - | - |
| 1778005873 | 10.56° C | 56% | 1015 hPa | 0 mm | - | - | - |
| 1778005573 | 10.56° C | 54% | 1015.1 hPa | 0 mm | - | - | - |
| 1778005273 | 10° C | 58% | 1015.2 hPa | 0 mm | - | - | - |
| 1778004973 | 10° C | 59% | 1015.2 hPa | 0 mm | - | - | - |
| 1778004673 | 10° C | 56% | 1015.2 hPa | 0 mm | - | - | - |
| 1778004373 | 10° C | 58% | 1015.3 hPa | 0 mm | - | - | - |
| 1778004073 | 10° C | 55% | 1015.2 hPa | 0 mm | - | - | - |
| 1778003773 | 10° C | 58% | 1015.1 hPa | 0 mm | - | - | - |
| 1778003473 | 10° C | 59% | 1015.2 hPa | 0 mm | - | - | - |
| 1778003173 | 9.44° C | 60% | 1015.2 hPa | 0 mm | - | - | - |
| 1778002873 | 10° C | 59% | 1015.2 hPa | 0 mm | - | - | - |
* Rain latest hour (hover to see other rain measurements)
** Current wind speed in m/s (hover to see current wind gust speed)